Regional Weather Roundup
Issued by NWS

Home | Current Version | Previous Version | Text Only | Print | Product List | Glossary Off
Versions: 1 2 3 4 5 6 7 8 9 10 11 12 13 14 15 16 17 18 19 20 21 22 23 24 25 26 27 28 29 30 31 32 33 34 35 36 37 38 39 40 41 42 43 44 45 46 47 48 49 50

000
ASUS43 KLMK 280710
RWRKY
KENTUCKY REGIONAL WEATHER ROUNDUP
NATIONAL WEATHER SERVICE LOUISVILLE KY
300 AM EDT WED JUN 28 2017

NOTE "FAIR" INDICATES FEW OR NO CLOUDS BELOW 12,000 FEET
WITH NO SIGNIFICANT WEATHER AND/OR OBSTRUCTIONS TO VISIBILITY.

KYZ001>023-026-027-061>063-070>075-280800-
WESTERN AND SOUTH CENTRAL KENTUCKY

CITY           SKY/WX    TMP DP  RH WIND       PRES   REMARKS
PADUCAH        CLEAR     65  56  72 SE6       30.06F
HENDERSON      PTCLDY    57  55  93 CALM      30.09F
OWENSBORO      CLEAR     62  56  80 CALM      30.10F
HOPKINSVILLE   CLEAR     63  55  74 E5        30.08F
BOWLING GREEN  CLEAR     60  58  92 CALM      30.11F
GLASGOW        CLEAR     56  56 100 CALM      30.12F
$$

KYZ024-025-028>034-038-045-046-053-280800-
NORTH CENTRAL KENTUCKY

CITY           SKY/WX    TMP DP  RH WIND       PRES   REMARKS
LOUISVILLE/SDF CLEAR     65  50  58 CALM      30.12F
LOUISVILLE/LOU CLEAR     62  52  69 CALM      30.13S
FORT KNOX      CLEAR     55  54  96 CALM      30.11S
$$

KYZ035>037-039>044-047>052-055>060-089>105-280800-
NORTHEAST KENTUCKY

CITY           SKY/WX    TMP DP  RH WIND       PRES   REMARKS
LEXINGTON      CLEAR     54  49  83 SE5       30.14F
COVINGTON      CLEAR     55  54  96 CALM      30.13F
FRANKFORT      PTCLDY    54  50  86 CALM      30.13F
$$

KYZ054-064>069-076>088-106>120-280800-
SOUTHEAST KENTUCKY

CITY           SKY/WX    TMP DP  RH WIND       PRES   REMARKS
JACKSON        CLEAR     60  48  64 SE3       30.17S
LONDON         CLEAR     54  51  90 CALM      30.15F
SOMERSET       CLEAR     52  52 100 CALM      30.15F
MIDDLESBORO    CLEAR     52  52 100 CALM      30.18S
MONTICELLO     SUNNY     52  51  97 CALM      30.16F
$$




USA.gov is the U.S. government's official web portal to all federal, state and local government web resources and services.